Location: Austin
(30.3000°N, 97.7500°W)
Time: 02:22:33
(UTC-05:00)

Cosmos 2219 Rocket - Pass Details

Date: 15 May 2024
Orbit: 827 x 846 km, 71.0° (Epoch: 29 May)

Event Time Altitude Azimuth Distance (km) Brightness Sun altitude
Rises 20:37:11 0° 213° (SSW) 3,351 5.4 -4.5°
Reaches altitude 10° 20:39:42 10° 219° (SW) 2,420 4.8 -5.0°
Maximum altitude 20:45:01 48° 293° (WNW) 1,074 3.4 -6.0°
Drops below altitude 10° 20:50:24 10° 7° (N) 2,436 4.9 -7.1°
Sets 20:52:56 0° 13° (NNE) 3,374 5.5 -7.6°
